C/2022 N2 ( PanSTARRS )

Japanese version
Home page
Updated on September 11, 2022

---------------------------------------------------------------------

* Profile

Discovery Date July 4, 2022
Magnitude 20.6 mag
Discoverer Pan-STARRS 2 telescope (Haleakala)

* Orbital Elements

Epoch 2022 Aug. 9.0 TT = JDT 2459800.5
T 2025 July 31.49396 TT                                 Rudenko
q   3.8271065            (2000.0)            P               Q
z  -0.0010798      Peri.   75.33495     +0.81551775     -0.57540614
 +/-0.0021552      Node   319.74035     +0.48722089     +0.74039403
e   1.0041326      Incl.    5.50140     +0.31232453     +0.34745425
From 35 observations 2022 June 2-Aug. 1, mean residual 0".2.

* Finding Charts

* Magnitudes Graph

        m1 = 6.0 + 5 log d + 10.0 log r

---------------------------------------------------------------------

The orbital elements are published on M.P.E.C. 2022-Q139.
The charts are made with StellaNavigator Ver.10 (AstroArts).
The magnitudes graphs are made with Comet for Windows.

---------------------------------------------------------------------

Copyright(C) Seiichi Yoshida (comet@aerith.net). All rights reserved.